| time (UTC) | temp C | wind direction | speed KPH | gust KPH | rain 1hr cm | rain 24hr cm | rain mn cm | humidity % | barometer mb |
| 20260507131004 | 5 | 288 | 3.2 | 9.7 | 0.00 | 1.55 | 0.00 | 81 | 1008.5 |
| 20260507130502 | 5 | 271 | 4.8 | 12.9 | 0.00 | 1.57 | 0.00 | 82 | 1008.4 |
| 20260507130008 | 4 | 287 | 4.8 | 12.9 | 0.00 | 1.57 | 0.00 | 81 | 1008.5 |
| 20260507125507 | 5 | 282 | 4.8 | 8.0 | 0.00 | 1.60 | 0.00 | 83 | 1008.4 |
| 20260507125005 | 5 | 271 | 1.6 | 6.4 | 0.00 | 1.63 | 0.00 | 85 | 1008.4 |
| 20260507124512 | 4 | 261 | 1.6 | 6.4 | 0.00 | 1.65 | 0.00 | 87 | 1008.5 |
| 20260507124006 | 4 | 276 | 3.2 | 6.4 | 0.00 | 1.65 | 0.00 | 88 | 1008.5 |
| 20260507123505 | 4 | 284 | 3.2 | 6.4 | 0.00 | 1.68 | 0.00 | 89 | 1008.5 |
| 20260507123015 | 4 | 288 | 3.2 | 6.4 | 0.00 | 1.70 | 0.00 | 90 | 1008.4 |
| 20260507122511 | 3 | 279 | 4.8 | 6.4 | 0.00 | 1.73 | 0.00 | 90 | 1008.4 |
| 20260507122006 | 3 | 291 | 3.2 | 4.8 | 0.00 | 1.75 | 0.00 | 90 | 1008.5 |
| 20260507121512 | 3 | 287 | 1.6 | 6.4 | 0.00 | 1.75 | 0.00 | 91 | 1008.5 |
| 20260507121004 | 3 | 278 | 1.6 | 6.4 | 0.00 | 1.78 | 0.00 | 91 | 1008.5 |
| 20260507120504 | 3 | 270 | 1.6 | 3.2 | 0.00 | 1.80 | 0.00 | 92 | 1008.5 |
| 20260507120012 | 3 | 285 | 1.6 | 4.8 | 0.00 | 1.80 | 0.00 | 90 | 1008.4 |
| 20260507115505 | 3 | 274 | 1.6 | 4.8 | 0.00 | 1.80 | 0.00 | 89 | 1008.2 |
| 20260507115002 | 3 | 267 | 0.0 | 3.2 | 0.00 | 1.83 | 0.00 | 91 | 1008.2 |
| 20260507114510 | 3 | 271 | 0.0 | 1.6 | 0.00 | 1.83 | 0.00 | 92 | 1008.1 |
| 20260507114004 | 3 | 240 | 0.0 | 4.8 | 0.00 | 1.83 | 0.00 | 93 | 1007.9 |
| 20260507113503 | 3 | 238 | 3.2 | 6.4 | 0.00 | 1.83 | 0.00 | 93 | 1007.9 |
| 20260507113015 | 3 | 292 | 3.2 | 6.4 | 0.00 | 1.85 | 0.00 | 94 | 1008.1 |
| 20260507112511 | 3 | 266 | 1.6 | 4.8 | 0.00 | 1.85 | 0.00 | 94 | 1008.1 |
| 20260507112006 | 3 | 261 | 1.6 | 4.8 | 0.00 | 1.85 | 0.00 | 95 | 1008.0 |
| 20260507111512 | 3 | 285 | 1.6 | 3.2 | 0.00 | 1.85 | 0.00 | 95 | 1008.0 |
| 20260507111003 | 3 | 276 | 0.0 | 9.7 | 0.00 | 1.85 | 0.00 | 95 | 1007.9 |
| 20260507110503 | 3 | 285 | 1.6 | 9.7 | 0.00 | 1.85 | 0.00 | 96 | 1007.9 |
| 20260507110017 | 3 | 285 | 3.2 | 6.4 | 0.00 | 1.85 | 0.00 | 96 | 1007.9 |
| 20260507105503 | 3 | 266 | 1.6 | 6.4 | 0.00 | 1.88 | 0.00 | 96 | 1007.8 |
| 20260507105008 | 3 | 271 | 1.6 | 6.4 | 0.00 | 1.88 | 0.00 | 96 | 1007.8 |
| 20260507104514 | 3 | 253 | 1.6 | 8.0 | 0.00 | 1.88 | 0.00 | 96 | 1007.7 |
| 20260507104006 | 3 | 283 | 1.6 | 8.0 | 0.00 | 1.88 | 0.00 | 96 | 1007.8 |
| 20260507103504 | 3 | 252 | 3.2 | 8.0 | 0.00 | 1.88 | 0.00 | 96 | 1007.7 |
| 20260507103013 | 3 | 270 | 3.2 | 6.4 | 0.00 | 1.88 | 0.00 | 96 | 1007.7 |
| 20260507102504 | 3 | 269 | 0.0 | 1.6 | 0.00 | 1.88 | 0.00 | 96 | 1007.6 |
| 20260507102007 | 3 | 247 | 0.0 | 3.2 | 0.00 | 1.88 | 0.00 | 96 | 1007.6 |
| 20260507101517 | 3 | 269 | 0.0 | 3.2 | 0.00 | 1.88 | 0.00 | 96 | 1007.7 |
| 20260507101006 | 3 | 246 | 1.6 | 3.2 | 0.00 | 1.88 | 0.00 | 96 | 1007.7 |
| 20260507100503 | 3 | 257 | 0.0 | 3.2 | 0.00 | 1.88 | 0.00 | 96 | 1007.7 |
| 20260507100016 | 3 | 281 | 0.0 | 3.2 | 0.00 | 1.88 | 0.00 | 96 | 1007.7 |
| 20260507095505 | 3 | 279 | 0.0 | 3.2 | 0.00 | 1.91 | 0.00 | 96 | 1007.7 |
| 20260507095004 | 3 | 268 | 0.0 | 3.2 | 0.00 | 1.91 | 0.00 | 96 | 1007.7 |
| 20260507094517 | 3 | 262 | 0.0 | 3.2 | 0.00 | 1.91 | 0.00 | 96 | 1007.6 |
| 20260507094005 | 3 | 274 | 0.0 | 1.6 | 0.00 | 1.91 | 0.00 | 96 | 1007.7 |
| 20260507093506 | 3 | 272 | 0.0 | 0.0 | 0.00 | 1.91 | 0.00 | 96 | 1007.7 |
| 20260507093019 | 3 | 273 | 0.0 | 0.0 | 0.00 | 1.91 | 0.00 | 96 | 1007.6 |
| 20260507092504 | 3 | 273 | 0.0 | 0.0 | 0.00 | 1.91 | 0.00 | 96 | 1007.5 |
| 20260507092007 | 3 | 272 | 0.0 | 0.0 | 0.00 | 1.91 | 0.00 | 96 | 1007.7 |
| 20260507091513 | 3 | 273 | 0.0 | 0.0 | 0.00 | 1.91 | 0.00 | 96 | 1007.8 |
| 20260507091007 | 3 | 272 | 0.0 | 0.0 | 0.00 | 1.91 | 0.00 | 96 | 1007.9 |
| 20260507090507 | 3 | 273 | 0.0 | 0.0 | 0.00 | 1.91 | 0.00 | 96 | 1007.9 |
| 20260507090024 | 3 | 273 | 0.0 | 0.0 | 0.00 | 1.91 | 0.00 | 96 | 1007.8 |
| 20260507085506 | 3 | 272 | 0.0 | 0.0 | 0.00 | 1.91 | 0.00 | 96 | 1007.6 |
| 20260507085008 | 3 | 273 | 0.0 | 0.0 | 0.00 | 1.91 | 0.00 | 96 | 1007.8 |
| 20260507084520 | 3 | 272 | 0.0 | 0.0 | 0.00 | 1.91 | 0.00 | 96 | 1007.8 |
| 20260507084006 | 3 | 273 | 0.0 | 0.0 | 0.00 | 1.91 | 0.00 | 96 | 1007.8 |
| 20260507083506 | 3 | 273 | 0.0 | 0.0 | 0.00 | 1.91 | 0.00 | 96 | 1007.9 |
| 20260507083024 | 3 | 273 | 0.0 | 0.0 | 0.00 | 1.91 | 0.00 | 96 | 1007.9 |
| 20260507082503 | 3 | 271 | 0.0 | 0.0 | 0.00 | 1.91 | 0.00 | 96 | 1007.9 |
| 20260507082008 | 3 | 271 | 0.0 | 1.6 | 0.00 | 1.91 | 0.00 | 96 | 1007.9 |
| 20260507081519 | 3 | 271 | 0.0 | 1.6 | 0.00 | 1.91 | 0.00 | 96 | 1008.0 |
| 20260507081008 | 3 | 257 | 0.0 | 1.6 | 0.00 | 1.91 | 0.00 | 96 | 1008.1 |
| 20260507080505 | 3 | 257 | 0.0 | 1.6 | 0.00 | 1.91 | 0.00 | 96 | 1008.0 |
| 20260507080023 | 3 | 264 | 0.0 | 1.6 | 0.00 | 1.91 | 0.00 | 96 | 1008.0 |
| 20260507075505 | 3 | 264 | 0.0 | 0.0 | 0.00 | 1.91 | 0.00 | 96 | 1008.1 |
| 20260507075009 | 3 | 264 | 0.0 | 0.0 | 0.00 | 1.91 | 0.00 | 96 | 1008.0 |
| 20260507074520 | 3 | 264 | 0.0 | 0.0 | 0.00 | 1.96 | 0.00 | 96 | 1008.1 |
| 20260507074005 | 3 | 264 | 0.0 | 0.0 | 0.00 | 1.96 | 0.00 | 96 | 1008.2 |
| 20260507073508 | 3 | 264 | 0.0 | 1.6 | 0.00 | 1.96 | 0.00 | 96 | 1008.1 |
| 20260507073020 | 3 | 264 | 0.0 | 1.6 | 0.00 | 1.96 | 0.00 | 96 | 1008.1 |
| 20260507072507 | 3 | 276 | 0.0 | 1.6 | 0.00 | 1.96 | 0.00 | 96 | 1008.1 |
| 20260507072006 | 3 | 277 | 1.6 | 1.6 | 0.00 | 1.96 | 0.00 | 96 | 1008.0 |
| 20260507071522 | 3 | 277 | 0.0 | 1.6 | 0.00 | 1.96 | 0.00 | 96 | 1008.0 |
| 20260507071005 | 3 | 277 | 0.0 | 1.6 | 0.00 | 1.96 | 0.00 | 96 | 1008.1 |
| 20260507070504 | 3 | 107 | 0.0 | 1.6 | 0.00 | 1.96 | 0.00 | 96 | 1008.1 |
| 20260507070028 | 3 | 105 | 0.0 | 1.6 | 0.00 | 1.98 | 0.00 | 96 | 1008.0 |
| 20260507065504 | 3 | 105 | 0.0 | 1.6 | 0.00 | 2.01 | 0.00 | 96 | 1007.9 |
| 20260507065007 | 3 | 105 | 0.0 | 1.6 | 0.00 | 2.01 | 0.00 | 96 | 1007.7 |
| 20260507064524 | 3 | 107 | 0.0 | 0.0 | 0.00 | 2.01 | 0.00 | 96 | 1007.8 |
| 20260507064006 | 3 | 107 | 0.0 | 0.0 | 0.00 | 2.03 | 0.00 | 96 | 1007.7 |
| 20260507063507 | 3 | 107 | 0.0 | 1.6 | 0.00 | 2.03 | 0.00 | 96 | 1007.6 |
| 20260507063020 | 3 | 107 | 0.0 | 3.2 | 0.00 | 2.06 | 0.00 | 96 | 1007.3 |
| 20260507062509 | 3 | 112 | 1.6 | 3.2 | 0.00 | 2.08 | 0.00 | 96 | 1007.3 |
| 20260507062007 | 3 | 102 | 1.6 | 4.8 | 0.00 | 2.08 | 0.00 | 96 | 1007.4 |
| 20260507061522 | 3 | 105 | 1.6 | 4.8 | 0.00 | 2.08 | 0.00 | 96 | 1007.3 |
| 20260507061006 | 3 | 96 | 1.6 | 3.2 | 0.00 | 2.08 | 0.00 | 96 | 1007.5 |
| 20260507060503 | 3 | 99 | 1.6 | 1.6 | 0.00 | 2.08 | 0.00 | 96 | 1007.7 |
| 20260507060005 | 3 | 100 | 0.0 | 1.6 | 0.00 | 2.08 | 0.00 | 96 | 1007.9 |
| 20260507055504 | 3 | 100 | 0.0 | 1.6 | 0.00 | 2.08 | 0.00 | 96 | 1008.0 |
| 20260507055003 | 3 | 99 | 1.6 | 1.6 | 0.00 | 2.08 | 0.00 | 96 | 1008.0 |
| 20260507054518 | 3 | 100 | 0.0 | 1.6 | 0.00 | 2.08 | 0.00 | 96 | 1007.9 |
| 20260507054005 | 3 | 100 | 1.6 | 1.6 | 0.00 | 2.08 | 0.00 | 96 | 1007.8 |
| 20260507053505 | 3 | 72 | 0.0 | 1.6 | 0.00 | 2.11 | 0.00 | 96 | 1008.2 |
| 20260507053018 | 3 | 72 | 0.0 | 1.6 | 0.00 | 2.11 | 0.00 | 96 | 1008.4 |
| 20260507052506 | 3 | 73 | 0.0 | 1.6 | 0.00 | 2.11 | 0.00 | 96 | 1008.3 |
| 20260507052005 | 3 | 73 | 0.0 | 0.0 | 0.00 | 2.11 | 0.00 | 96 | 1008.4 |
| 20260507051524 | 3 | 72 | 0.0 | 0.0 | 0.00 | 2.11 | 0.00 | 96 | 1008.5 |
| 20260507051008 | 3 | 72 | 0.0 | 0.0 | 0.00 | 2.11 | 0.00 | 96 | 1008.5 |
| 20260507050508 | 3 | 73 | 0.0 | 0.0 | 0.00 | 2.11 | 0.00 | 96 | 1008.5 |
| 20260507050007 | 3 | 73 | 0.0 | 0.0 | 0.00 | 2.13 | 0.00 | 96 | 1008.3 |
| 20260507045503 | 3 | 72 | 0.0 | 0.0 | 0.00 | 2.16 | 0.00 | 96 | 1008.6 |
| 20260507045003 | 3 | 72 | 0.0 | 0.0 | 0.00 | 2.16 | 0.00 | 96 | 1008.7 |
| 20260507044507 | 3 | 73 | 0.0 | 1.6 | 0.00 | 2.16 | 0.00 | 96 | 1008.7 |
| 20260507044003 | 3 | 73 | 0.0 | 3.2 | 0.00 | 2.16 | 0.00 | 96 | 1008.6 |
| 20260507043502 | 3 | 68 | 1.6 | 3.2 | 0.00 | 2.16 | 0.00 | 96 | 1008.3 |
| 20260507043020 | 3 | 80 | 1.6 | 3.2 | 0.00 | 2.16 | 0.00 | 96 | 1008.6 |
| 20260507042504 | 3 | 94 | 0.0 | 0.0 | 0.00 | 2.16 | 0.00 | 96 | 1008.8 |
| 20260507042004 | 3 | 94 | 0.0 | 0.0 | 0.00 | 2.18 | 0.00 | 96 | 1008.8 |
| 20260507041516 | 3 | 94 | 0.0 | 1.6 | 0.00 | 2.24 | 0.00 | 96 | 1008.6 |
| 20260507041008 | 3 | 94 | 0.0 | 1.6 | 0.00 | 2.24 | 0.00 | 96 | 1008.4 |
| 20260507040507 | 3 | 94 | 0.0 | 1.6 | 0.00 | 2.24 | 0.00 | 96 | 1008.5 |
| 20260507040021 | 3 | 94 | 0.0 | 0.0 | 0.00 | 2.26 | 0.00 | 96 | 1008.6 |
| 20260507035507 | 3 | 94 | 0.0 | 0.0 | 0.00 | 2.26 | 2.26 | 96 | 1008.7 |
| 20260507035006 | 3 | 94 | 0.0 | 1.6 | 0.00 | 2.26 | 2.26 | 96 | 1008.7 |
| 20260507034503 | 3 | 94 | 0.0 | 1.6 | 0.00 | 2.26 | 2.26 | 96 | 1008.6 |
| 20260507034002 | 3 | 94 | 0.0 | 1.6 | 0.00 | 2.29 | 2.26 | 96 | 1008.6 |
| 20260507033505 | 3 | 94 | 0.0 | 1.6 | 0.00 | 2.34 | 2.26 | 96 | 1008.6 |
| 20260507033006 | 3 | 94 | 0.0 | 1.6 | 0.00 | 2.49 | 2.26 | 96 | 1008.4 |
| 20260507032504 | 3 | 94 | 0.0 | 1.6 | 0.00 | 2.57 | 2.26 | 96 | 1008.7 |
| 20260507032005 | 3 | 94 | 0.0 | 1.6 | 0.00 | 2.57 | 2.26 | 96 | 1008.7 |
| 20260507031513 | 3 | 94 | 0.0 | 1.6 | 0.00 | 2.59 | 2.26 | 96 | 1008.7 |
| 20260507031004 | 3 | 94 | 0.0 | 1.6 | 0.00 | 2.59 | 2.26 | 96 | 1008.9 |
| 20260507030504 | 3 | 94 | 0.0 | 1.6 | 0.00 | 2.67 | 2.26 | 96 | 1008.9 |
| 20260507030020 | 3 | 94 | 0.0 | 1.6 | 0.00 | 2.74 | 2.26 | 96 | 1008.8 |
| 20260507025504 | 3 | 94 | 0.0 | 1.6 | 0.00 | 2.77 | 2.26 | 96 | 1008.5 |
| 20260507025007 | 3 | 94 | 1.6 | 3.2 | 0.00 | 2.79 | 2.26 | 96 | 1008.4 |
| 20260507024524 | 3 | 95 | 1.6 | 3.2 | 0.00 | 2.82 | 2.26 | 96 | 1008.5 |
| 20260507024011 | 4 | 101 | 1.6 | 3.2 | 0.00 | 2.82 | 2.26 | 96 | 1008.4 |
| 20260507023506 | 3 | 157 | 0.0 | 1.6 | 0.03 | 2.82 | 2.26 | 96 | 1008.7 |
| 20260507023027 | 3 | 157 | 0.0 | 0.0 | 0.03 | 2.82 | 2.26 | 96 | 1008.7 |
| 20260507022503 | 4 | 157 | 0.0 | 1.6 | 0.03 | 2.82 | 2.26 | 96 | 1008.9 |
| 20260507022003 | 4 | 157 | 0.0 | 1.6 | 0.03 | 2.84 | 2.26 | 96 | 1008.8 |
| 20260507021510 | 3 | 280 | 0.0 | 1.6 | 0.05 | 2.90 | 2.26 | 96 | 1008.9 |
| 20260507021003 | 3 | 280 | 0.0 | 1.6 | 0.05 | 2.90 | 2.26 | 96 | 1008.6 |
| 20260507020507 | 4 | 280 | 0.0 | 0.0 | 0.08 | 2.90 | 2.26 | 96 | 1008.7 |
| 20260507020017 | 4 | 280 | 0.0 | 0.0 | 0.08 | 2.90 | 2.26 | 96 | 1008.8 |
| 20260507015506 | 4 | 280 | 0.0 | 0.0 | 0.08 | 2.90 | 2.26 | 96 | 1008.9 |
| 20260507015008 | 4 | 280 | 0.0 | 0.0 | 0.10 | 2.90 | 2.26 | 96 | 1009.0 |
| 20260507014527 | 4 | 280 | 0.0 | 0.0 | 0.10 | 2.90 | 2.26 | 96 | 1008.7 |
| 20260507014006 | 4 | 280 | 0.0 | 0.0 | 0.13 | 2.90 | 2.26 | 96 | 1008.6 |
| 20260507013508 | 4 | 280 | 0.0 | 0.0 | 0.10 | 2.87 | 2.24 | 96 | 1008.7 |
| 20260507013042 | 4 | 280 | 0.0 | 0.0 | 0.13 | 2.87 | 2.24 | 96 | 1008.7 |
| 20260507012506 | 4 | 280 | 0.0 | 0.0 | 0.13 | 2.87 | 2.24 | 96 | 1008.8 |
| 20260507012009 | 4 | 280 | 0.0 | 0.0 | 0.13 | 2.87 | 2.24 | 96 | 1008.8 |
| 20260507011527 | 4 | 280 | 0.0 | 0.0 | 0.10 | 2.84 | 2.21 | 96 | 1008.8 |
| 20260507011006 | 4 | 280 | 0.0 | 0.0 | 0.13 | 2.84 | 2.21 | 96 | 1008.8 |
| 20260507010503 | 4 | 280 | 0.0 | 0.0 | 0.10 | 2.82 | 2.18 | 96 | 1008.9 |
| 20260507010013 | 4 | 280 | 0.0 | 0.0 | 0.13 | 2.82 | 2.18 | 96 | 1008.9 |
| 20260507005504 | 4 | 280 | 0.0 | 0.0 | 0.15 | 2.82 | 2.18 | 96 | 1008.9 |
| 20260507005004 | 4 | 280 | 0.0 | 1.6 | 0.13 | 2.79 | 2.16 | 96 | 1008.8 |
| 20260507004517 | 4 | 280 | 0.0 | 3.2 | 0.13 | 2.79 | 2.16 | 96 | 1008.7 |
| 20260507004006 | 4 | 280 | 0.0 | 3.2 | 0.10 | 2.77 | 2.13 | 96 | 1008.6 |
| 20260507003506 | 4 | 297 | 0.0 | 3.2 | 0.10 | 2.77 | 2.13 | 96 | 1008.5 |
| 20260507003021 | 4 | 282 | 1.6 | 3.2 | 0.08 | 2.74 | 2.11 | 96 | 1008.5 |
| 20260507002510 | 4 | 282 | 0.0 | 1.6 | 0.10 | 2.74 | 2.11 | 96 | 1008.1 |
| 20260507002010 | 4 | 282 | 0.0 | 1.6 | 0.13 | 2.74 | 2.11 | 96 | 1008.1 |
| 20260507001523 | 4 | 282 | 0.0 | 1.6 | 0.13 | 2.74 | 2.11 | 96 | 1008.0 |
| 20260507001010 | 4 | 281 | 0.0 | 1.6 | 0.10 | 2.72 | 2.08 | 96 | 1008.0 |
| 20260507000507 | 4 | 281 | 0.0 | 3.2 | 0.10 | 2.72 | 2.08 | 96 | 1008.0 |
| 20260507000030 | 4 | 281 | 0.0 | 3.2 | 0.08 | 2.67 | 2.06 | 96 | 1008.1 |
| 20260506235511 | 4 | 290 | 0.0 | 3.2 | 0.05 | 2.64 | 2.03 | 96 | 1007.9 |
| 20260506235003 | 4 | 275 | 0.0 | 1.6 | 0.05 | 2.64 | 2.03 | 96 | 1007.8 |
| 20260506234514 | 4 | 275 | 0.0 | 1.6 | 0.05 | 2.64 | 2.03 | 96 | 1007.7 |
| 20260506234006 | 4 | 275 | 0.0 | 1.6 | 0.05 | 2.64 | 2.03 | 96 | 1007.6 |
| 20260506233505 | 4 | 275 | 0.0 | 1.6 | 0.05 | 2.64 | 2.03 | 96 | 1007.4 |
| 20260506233015 | 4 | 68 | 0.0 | 4.8 | 0.08 | 2.64 | 2.03 | 96 | 1007.3 |
| 20260506232505 | 4 | 354 | 1.6 | 4.8 | 0.05 | 2.64 | 2.01 | 96 | 1007.2 |
| 20260506232006 | 4 | 77 | 0.0 | 3.2 | 0.03 | 2.62 | 1.98 | 96 | 1007.2 |
| 20260506231519 | 4 | 77 | 0.0 | 3.2 | 0.05 | 2.62 | 1.98 | 96 | 1007.3 |
| 20260506231008 | 4 | 310 | 0.0 | 1.6 | 0.05 | 2.62 | 1.98 | 96 | 1007.4 |
| 20260506230508 | 4 | 309 | 0.0 | 1.6 | 0.05 | 2.62 | 1.98 | 96 | 1007.3 |
| 20260506230023 | 4 | 309 | 0.0 | 1.6 | 0.05 | 2.62 | 1.98 | 96 | 1007.3 |
| 20260506225507 | 4 | 319 | 1.6 | 4.8 | 0.05 | 2.62 | 1.98 | 96 | 1007.3 |
| 20260506225008 | 4 | 329 | 1.6 | 4.8 | 0.05 | 2.62 | 1.98 | 96 | 1007.3 |
| 20260506224527 | 4 | 270 | 0.0 | 3.2 | 0.08 | 2.62 | 1.98 | 96 | 1007.2 |
| 20260506224008 | 4 | 285 | 0.0 | 4.8 | 0.08 | 2.62 | 1.98 | 96 | 1007.2 |
| 20260506223508 | 4 | 339 | 0.0 | 6.4 | 0.08 | 2.62 | 1.98 | 95 | 1007.2 |
| 20260506223010 | 4 | 16 | 1.6 | 6.4 | 0.05 | 2.59 | 1.96 | 95 | 1007.1 |
| 20260506222504 | 4 | 24 | 0.0 | 6.4 | 0.05 | 2.59 | 1.96 | 95 | 1007.1 |
| 20260506222006 | 4 | 15 | 3.2 | 6.4 | 0.05 | 2.59 | 1.96 | 95 | 1007.2 |
| 20260506221514 | 4 | 257 | 0.0 | 8.0 | 0.05 | 2.57 | 1.93 | 95 | 1007.3 |
| 20260506221006 | 4 | 261 | 1.6 | 8.0 | 0.05 | 2.57 | 1.93 | 95 | 1007.3 |
| 20260506220509 | 4 | 307 | 1.6 | 6.4 | 0.05 | 2.57 | 1.93 | 95 | 1007.2 |
| 20260506220020 | 4 | 333 | 3.2 | 6.4 | 0.05 | 2.57 | 1.93 | 95 | 1007.2 |
| 20260506215507 | 4 | 288 | 1.6 | 3.2 | 0.08 | 2.57 | 1.93 | 96 | 1007.1 |
| 20260506215008 | 4 | 271 | 0.0 | 6.4 | 0.08 | 2.57 | 1.93 | 95 | 1007.0 |
| 20260506214537 | 4 | 314 | 0.0 | 8.0 | 0.05 | 2.54 | 1.91 | 95 | 1007.0 |
| 20260506214010 | 4 | 285 | 1.6 | 8.0 | 0.08 | 2.54 | 1.91 | 95 | 1007.0 |
| 20260506213508 | 4 | 294 | 0.0 | 4.8 | 0.08 | 2.54 | 1.91 | 95 | 1007.1 |
| 20260506213027 | 5 | 284 | 1.6 | 3.2 | 0.08 | 2.54 | 1.91 | 95 | 1007.0 |
| 20260506212510 | 5 | 290 | 1.6 | 4.8 | 0.08 | 2.54 | 1.91 | 95 | 1006.8 |
| 20260506212011 | 5 | 335 | 1.6 | 4.8 | 0.10 | 2.57 | 1.91 | 95 | 1006.6 |
| 20260506211527 | 5 | 288 | 0.0 | 4.8 | 0.08 | 2.54 | 1.88 | 95 | 1006.5 |
| 20260506211006 | 5 | 18 | 1.6 | 4.8 | 0.08 | 2.54 | 1.88 | 95 | 1006.5 |
| 20260506210503 | 5 | 289 | 0.0 | 4.8 | 0.08 | 2.57 | 1.88 | 95 | 1006.5 |
| 20260506210019 | 5 | 311 | 0.0 | 8.0 | 0.08 | 2.57 | 1.88 | 95 | 1006.6 |
| 20260506205509 | 5 | 300 | 1.6 | 8.0 | 0.05 | 2.54 | 1.85 | 95 | 1006.7 |
| 20260506205007 | 5 | 347 | 1.6 | 6.4 | 0.05 | 2.54 | 1.85 | 95 | 1006.6 |
| 20260506204520 | 5 | 6 | 1.6 | 6.4 | 0.05 | 2.57 | 1.85 | 95 | 1006.6 |
| 20260506204006 | 5 | 321 | 1.6 | 3.2 | 0.03 | 2.54 | 1.83 | 95 | 1006.7 |
| 20260506203507 | 5 | 333 | 1.6 | 4.8 | 0.03 | 2.54 | 1.83 | 95 | 1006.6 |
| 20260506203024 | 5 | 341 | 1.6 | 4.8 | 0.03 | 2.54 | 1.83 | 95 | 1006.8 |
| 20260506202509 | 5 | 285 | 1.6 | 9.7 | 0.03 | 2.54 | 1.83 | 95 | 1006.7 |
| 20260506202010 | 5 | 312 | 1.6 | 9.7 | 0.00 | 2.51 | 1.80 | 95 | 1006.7 |
| 20260506201529 | 5 | 286 | 3.2 | 8.0 | 0.03 | 2.54 | 1.80 | 95 | 1006.7 |
| 20260506201003 | 5 | 300 | 1.6 | 4.8 | 0.05 | 2.54 | 1.80 | 95 | 1006.6 |
| 20260506200504 | 5 | 314 | 3.2 | 4.8 | 0.05 | 2.54 | 1.80 | 95 | 1006.6 |
| 20260506200013 | 5 | 297 | 0.0 | 4.8 | 0.05 | 2.54 | 1.80 | 94 | 1006.5 |
| 20260506195504 | 5 | 278 | 1.6 | 3.2 | 0.08 | 2.54 | 1.80 | 95 | 1006.5 |
| 20260506195004 | 5 | 278 | 1.6 | 1.6 | 0.08 | 2.54 | 1.80 | 95 | 1006.5 |
| 20260506194518 | 5 | 82 | 0.0 | 1.6 | 0.10 | 2.57 | 1.80 | 95 | 1006.4 |
| 20260506194007 | 5 | 82 | 0.0 | 1.6 | 0.10 | 2.57 | 1.80 | 95 | 1006.4 |
| 20260506193503 | 5 | 82 | 0.0 | 1.6 | 0.10 | 2.57 | 1.80 | 96 | 1006.5 |
| 20260506193004 | 5 | 73 | 0.0 | 1.6 | 0.10 | 2.59 | 1.80 | 96 | 1006.5 |
| 20260506192503 | 5 | 73 | 0.0 | 1.6 | 0.10 | 2.67 | 1.80 | 96 | 1006.5 |
| 20260506192003 | 5 | 72 | 0.0 | 4.8 | 0.10 | 2.74 | 1.80 | 95 | 1006.6 |
| 20260506191506 | 5 | 93 | 1.6 | 4.8 | 0.10 | 2.72 | 1.78 | 95 | 1006.6 |
| 20260506191006 | 5 | 316 | 1.6 | 4.8 | 0.08 | 2.67 | 1.75 | 95 | 1006.6 |
| 20260506190504 | 5 | 281 | 0.0 | 4.8 | 0.08 | 2.67 | 1.75 | 95 | 1006.6 |
| 20260506190013 | 5 | 12 | 0.0 | 4.8 | 0.08 | 2.67 | 1.75 | 95 | 1006.7 |
| 20260506185504 | 5 | 303 | 1.6 | 4.8 | 0.05 | 2.64 | 1.73 | 95 | 1006.7 |
| 20260506185003 | 5 | 326 | 0.0 | 1.6 | 0.05 | 2.64 | 1.73 | 95 | 1006.7 |
| 20260506184536 | 5 | 309 | 0.0 | 3.2 | 0.05 | 2.64 | 1.70 | 95 | 1006.7 |
| 20260506184010 | 5 | 310 | 1.6 | 3.2 | 0.05 | 2.64 | 1.70 | 95 | 1006.7 |
| 20260506183506 | 5 | 287 | 1.6 | 3.2 | 0.08 | 2.64 | 1.70 | 95 | 1006.7 |
| 20260506183028 | 5 | 284 | 0.0 | 4.8 | 0.10 | 2.64 | 1.70 | 95 | 1006.7 |
| 20260506182505 | 4 | 318 | 1.6 | 4.8 | 0.10 | 2.64 | 1.70 | 95 | 1006.7 |
| 20260506182005 | 4 | 321 | 3.2 | 4.8 | 0.13 | 2.64 | 1.70 | 95 | 1006.7 |
| 20260506181508 | 5 | 300 | 1.6 | 4.8 | 0.13 | 2.62 | 1.68 | 95 | 1006.8 |
| 20260506181006 | 5 | 296 | 1.6 | 6.4 | 0.13 | 2.62 | 1.68 | 95 | 1006.8 |
| 20260506180504 | 5 | 283 | 0.0 | 6.4 | 0.15 | 2.62 | 1.68 | 95 | 1006.9 |
| 20260506180006 | 5 | 302 | 3.2 | 6.4 | 0.18 | 2.62 | 1.68 | 94 | 1007.0 |
| 20260506175504 | 5 | 293 | 1.6 | 3.2 | 0.18 | 2.62 | 1.68 | 95 | 1007.1 |
| 20260506175003 | 5 | 326 | 0.0 | 1.6 | 0.20 | 2.62 | 1.68 | 95 | 1007.1 |
| 20260506174511 | 5 | 325 | 0.0 | 1.6 | 0.18 | 2.59 | 1.65 | 95 | 1007.2 |
| 20260506174003 | 5 | 27 | 0.0 | 3.2 | 0.20 | 2.59 | 1.65 | 95 | 1007.3 |
| 20260506173505 | 5 | 27 | 1.6 | 3.2 | 0.18 | 2.57 | 1.63 | 95 | 1007.4 |
| 20260506173015 | 5 | 14 | 0.0 | 3.2 | 0.18 | 2.54 | 1.60 | 95 | 1007.6 |
| 20260506172506 | 5 | 14 | 1.6 | 3.2 | 0.20 | 2.54 | 1.60 | 95 | 1007.4 |
| 20260506172008 | 5 | 309 | 0.0 | 1.6 | 0.18 | 2.51 | 1.57 | 95 | 1007.5 |
| 20260506171518 | 5 | 284 | 0.0 | 4.8 | 0.18 | 2.49 | 1.55 | 95 | 1007.5 |
| 20260506171008 | 5 | 284 | 0.0 | 4.8 | 0.20 | 2.49 | 1.55 | 95 | 1007.5 |
| 20260506170507 | 5 | 20 | 1.6 | 8.0 | 0.20 | 2.46 | 1.52 | 95 | 1007.4 |
| 20260506170005 | 4 | 16 | 3.2 | 8.0 | 0.20 | 2.44 | 1.47 | 95 | 1007.3 |
| 20260506165503 | 5 | 317 | 0.0 | 9.7 | 0.23 | 2.44 | 1.47 | 95 | 1007.5 |
| 20260506165003 | 5 | 350 | 0.0 | 9.7 | 0.23 | 2.41 | 1.47 | 95 | 1007.4 |
| 20260506164508 | 5 | 340 | 3.2 | 6.4 | 0.25 | 2.41 | 1.47 | 95 | 1007.5 |
| 20260506164005 | 5 | 294 | 1.6 | 4.8 | 0.25 | 2.39 | 1.45 | 95 | 1007.6 |
| 20260506163504 | 5 | 221 | 0.0 | 4.8 | 0.28 | 2.39 | 1.45 | 95 | 1007.6 |
| 20260506163013 | 5 | 297 | 1.6 | 4.8 | 0.28 | 2.36 | 1.42 | 95 | 1007.7 |
| 20260506162507 | 5 | 35 | 1.6 | 4.8 | 0.28 | 2.34 | 1.40 | 95 | 1007.5 |
| 20260506162007 | 4 | 285 | 0.0 | 4.8 | 0.28 | 2.34 | 1.40 | 95 | 1007.8 |
| 20260506161518 | 4 | 281 | 1.6 | 4.8 | 0.28 | 2.31 | 1.37 | 95 | 1007.9 |
| 20260506161006 | 4 | 126 | 0.0 | 3.2 | 0.30 | 2.29 | 1.32 | 95 | 1008.0 |
| 20260506160507 | 4 | 86 | 0.0 | 3.2 | 0.28 | 2.26 | 1.32 | 95 | 1007.9 |
| 20260506160020 | 4 | 254 | 0.0 | 6.4 | 0.28 | 2.24 | 1.30 | 95 | 1008.1 |
| 20260506155508 | 4 | 298 | 1.6 | 6.4 | 0.28 | 2.21 | 1.27 | 95 | 1008.1 |
| 20260506155007 | 4 | 23 | 1.6 | 6.4 | 0.28 | 2.18 | 1.24 | 95 | 1008.2 |
| 20260506154526 | 4 | 271 | 3.2 | 6.4 | 0.25 | 2.16 | 1.22 | 95 | 1008.2 |
| 20260506154003 | 4 | 295 | 1.6 | 6.4 | 0.25 | 2.13 | 1.19 | 95 | 1008.2 |
| 20260506153505 | 4 | 285 | 1.6 | 6.4 | 0.23 | 2.11 | 1.17 | 95 | 1008.1 |
| 20260506153018 | 4 | 26 | 0.0 | 6.4 | 0.23 | 2.08 | 1.14 | 95 | 1008.0 |
| 20260506152503 | 4 | 32 | 3.2 | 4.8 | 0.20 | 2.06 | 1.12 | 95 | 1008.0 |
| 20260506152005 | 4 | 281 | 1.6 | 4.8 | 0.20 | 2.06 | 1.12 | 95 | 1008.0 |
| 20260506151515 | 5 | 28 | 1.6 | 4.8 | 0.20 | 2.03 | 1.09 | 95 | 1007.9 |
| 20260506151006 | 5 | 288 | 3.2 | 4.8 | 0.15 | 1.98 | 1.04 | 95 | 1007.9 |
| 20260506150507 | 5 | 291 | 3.2 | 4.8 | 0.15 | 1.98 | 1.04 | 94 | 1007.8 |
| 20260506150017 | 5 | 290 | 1.6 | 4.8 | 0.13 | 1.96 | 1.02 | 94 | 1007.9 |
| 20260506145506 | 5 | 308 | 1.6 | 4.8 | 0.13 | 1.93 | 0.99 | 94 | 1007.8 |
| 20260506145004 | 5 | 267 | 0.0 | 1.6 | 0.13 | 1.91 | 0.97 | 95 | 1007.7 |
| 20260506144522 | 5 | 273 | 0.0 | 1.6 | 0.13 | 1.91 | 0.97 | 95 | 1007.7 |
| 20260506144008 | 5 | 284 | 0.0 | 1.6 | 0.13 | 1.88 | 0.94 | 94 | 1007.7 |
| 20260506143508 | 5 | 296 | 0.0 | 1.6 | 0.15 | 1.88 | 0.94 | 95 | 1007.8 |
| 20260506143031 | 5 | 318 | 0.0 | 0.0 | 0.15 | 1.85 | 0.91 | 95 | 1007.8 |
| 20260506142505 | 5 | 319 | 0.0 | 1.6 | 0.15 | 1.85 | 0.91 | 95 | 1007.8 |
| 20260506142003 | 5 | 318 | 0.0 | 8.0 | 0.18 | 1.85 | 0.91 | 95 | 1007.9 |
| 20260506141507 | 5 | 338 | 1.6 | 8.0 | 0.18 | 1.83 | 0.89 | 95 | 1008.0 |
| 20260506141007 | 5 | 13 | 1.6 | 8.0 | 0.18 | 1.83 | 0.89 | 95 | 1007.9 |
| 20260506140504 | 5 | 80 | 1.6 | 6.4 | 0.20 | 1.83 | 0.89 | 95 | 1007.7 |
| 20260506140017 | 5 | 303 | 1.6 | 6.4 | 0.20 | 1.83 | 0.89 | 94 | 1007.8 |
| 20260506135503 | 5 | 291 | 3.2 | 4.8 | 0.20 | 1.80 | 0.86 | 94 | 1008.0 |
| 20260506135005 | 5 | 311 | 1.6 | 6.4 | 0.20 | 1.78 | 0.84 | 95 | 1007.9 |
| 20260506134518 | 5 | 7 | 1.6 | 6.4 | 0.23 | 1.78 | 0.84 | 95 | 1007.7 |
| 20260506134011 | 5 | 288 | 4.8 | 6.4 | 0.20 | 1.75 | 0.81 | 95 | 1008.0 |
| 20260506133508 | 6 | 278 | 0.0 | 3.2 | 0.20 | 1.73 | 0.79 | 95 | 1007.6 |
| 20260506133023 | 5 | 281 | 0.0 | 3.2 | 0.20 | 1.70 | 0.76 | 95 | 1007.4 |
| 20260506132511 | 5 | 71 | 0.0 | 3.2 | 0.23 | 1.70 | 0.76 | 95 | 1007.5 |
| 20260506132010 | 5 | 352 | 1.6 | 3.2 | 0.23 | 1.68 | 0.74 | 95 | 1008.0 |
| 20260506131533 | 5 | 102 | 1.6 | 3.2 | 0.20 | 1.65 | 0.71 | 94 | 1007.7 |